Regional Weather Roundup
Issued by NWS Wakefield, VA

Home | Current Version | Previous Version | Text Only | Print | Product List | Glossary Off
Versions: 1 2 3 4 5 6 7 8 9 10 11 12 13 14 15 16 17 18 19 20 21 22 23 24 25 26 27 28 29 30 31 32 33 34 35 36 37 38 39 40 41 42 43 44 45 46 47 48 49 50

000
ASUS41 KAKQ 290210
RWRAKQ

REGIONAL WEATHER ROUNDUP
NATIONAL WEATHER SERVICE WAKEFIELD VA
900 PM EST WED JAN 28 2015

Note: "fair" indicates few or no clouds below 12,000 feet with no
significant weather and/or obstructions to visibility. * = Denotes
station may not report precipitation (e.g., rain,snow,etc.),
thunder or fog.

VAZ042-051-052>054-056-290300-
NORTHERN VIRGINIA

CITY           SKY/WX    TMP DP  RH WIND       PRES   REMARKS
WASH NATIONAL  CLEAR     33   6  32 NW9       30.34R
DULLES         CLEAR     26   6  42 NW5       30.33R
FORT BELVOIR   CLEAR     26  10  51 NW7       30.34R
QUANTICO       FAIR      28   8  43 VRB5      30.35R
FREDERICKSBRG* CLEAR     32   7  35 NW6       30.33R
STAFFORD*      CLEAR     28   4  36 CALM      30.37R
WARRENTON      FAIR      19  17  90 CALM      30.32R
CULPEPER*      CLEAR     21  10  63 CALM      30.32S
MANASSAS*      NOT AVBL
LEESBURG*      CLEAR     27  10  50 NW5       30.33S
WINCHESTER     CLEAR     25   3  39 CALM      30.32R
FRONT ROYAL*   FAIR      23  10  58 CALM      30.30S
LURAY*         FAIR      25  18  74 CALM      30.31R
$$

VAZ048-049-060>072-079>083-290300-
CENTRAL AND SOUTH CENTRAL VIRGINIA

CITY           SKY/WX    TMP DP  RH WIND       PRES   REMARKS
RICHMOND       CLEAR     30   8  39 N5        30.32R
CHESTERFIELD*  FAIR      25   5  42 CALM      30.32R
PETERSBURG*    CLEAR     22  17  78 CALM      30.33R
HANOVER        CLEAR     28   7  41 CALM      30.33R
TAPPAHANNOCK*  CLEAR     29   4  34 CALM      30.32R
QUINTON*       FAIR      31   6  35 NW5       30.32R
CHARLOTTSVILLE CLEAR     32   0  25 CALM      30.30R
GORDONSVILLE*  FAIR      22  15  76 CALM      30.31R
ORANGE*        CLEAR     23  18  80 CALM      30.33R
LOUISA*        CLEAR     21  12  68 CALM      30.30R
BUMPASS*       FAIR      29  11  47 N3        30.31S
FARMVILLE*     CLEAR     25  10  52 CALM      30.30R
CREWE*         FAIR      25  17  72 CALM      30.30R
FORT PICKETT*  FAIR      26  14  60 NW3       30.30S
CHASE CITY*    FAIR      29  16  58 N3        30.31R
CLARKSVILLE*   FAIR      28  16  59 CALM      30.30R
SOUTH HILL*    CLEAR     26  12  55 CALM      30.36S
LAWRENCEVILLE* FAIR      29  14  52 CALM      30.30S
EMPORIA*       CLEAR     23  18  80 CALM      30.33R
$$

VAZ088>098-290300-
SOUTHEAST VIRGINIA

CITY           SKY/WX    TMP DP  RH WIND       PRES   REMARKS
NORFOLK        CLEAR     35  12  38 N12G18    30.29R
VIRGINIA BEACH CLEAR     36  12  37 N16       30.28R
NORFOLK NAVAL  CLEAR     37  10  32 N15       30.31R
WEST POINT*    CLEAR     28  12  50 CALM      30.33S
SALUDA*        FAIR      32  12  44 NW8       30.30R
NEWPORT NEWS   CLEAR     33   9  36 N5        30.31R
LANGLEY AFB    CLEAR     32   9  37 NW10      30.30R WCI  24
FORT EUSTIS    CLEAR     34  15  47 NE5       30.29R
WILLIAMSBURG*    N/A     34  12  40 N5        30.32R
HR EXEC AP*    FAIR      32  10  40 N3        30.32R
FRANKLIN*      CLEAR     29  10  45 NW3       30.32R
WAKEFIELD      CLEAR     26  13  57 CALM      30.32R
$$

VAZ020-022-025-037-045-290300-
WEST CENTRAL AND SOUTHWEST VIRGINIA

CITY           SKY/WX    TMP DP  RH WIND       PRES   REMARKS
STAUNTON*      CLEAR     25  10  54 CALM      30.31R
WAYNESBORO*    FAIR      23   7  51 CALM      30.29R
HOT SPRINGS VA CLEAR     23  11  60 W6        30.16R
LYNCHBURG      CLEAR     27   6  41 CALM      30.30R
DANVILLE       CLEAR     29  13  51 CALM      30.31R
SOUTH BOSTON*  FAIR      26  14  60 CALM      30.31R
MARTINSVILLE   CLEAR     26  15  63 CALM      30.33R
ROANOKE        CLEAR     33  10  38 CALM      30.31R
BLACKSBURG     CLEAR     24  11  58 CALM      30.29R
DUBLIN*        CLEAR     28  15  57 CALM      30.27R
MARION*        CLEAR     28  19  71 CALM      30.26S
HILLSVILLE*    CLEAR     30  18  60 CALM      30.23R
RICHLANDS*     FAIR      28  17  65 CALM      30.21S
WISE*          FAIR      30  19  64 S6        30.21S
ABINGDON*      CLEAR     28  21  74 CALM      30.25S
$$

MDZ021>025-VAZ099-100-290300-
SOUTHERN MARYLAND AND THE DELMARVA PENINSULA

CITY           SKY/WX    TMP DP  RH WIND       PRES   REMARKS
PATUXENT RIVER CLEAR     31  10  41 NW12      30.30R WCI  22
BAY BRIDGE APT   N/A     32   9  37 NW13      30.31S WCI  22
LEONARDTOWN    CLEAR     30   5  34 NW3       30.32S
DOVER          CLEAR     27   9  46 W9        30.28R
GEORGETOWN     CLEAR     29   7  39 NW7       30.28R
EASTON         CLEAR     28  14  54 NW3       30.34R
CAMBRIDGE      CLEAR     34  10  37 NW10G16   30.29R
SALISBURY      CLEAR     30   9  41 NW6       30.28R
OCEAN CITY     CLEAR     29   9  43 NW8       30.27R
WALLOPS ISLAND CLEAR     29  12  49 NW9       30.29R
ACCOMACK*      CLEAR     32  12  43 NW13G18   30.28S WCI  22
$$

NCZ012>017-030>032-290300-
NORTH CENTRAL AND EASTERN NORTH CAROLINA

CITY           SKY/WX    TMP DP  RH WIND       PRES   REMARKS
ROANOKE RAPIDS FAIR      28  21  74 CALM      30.32R
RALEIGH        PTCLDY    29  14  53 CALM      30.31R
ELIZABETH CITY CLEAR     28  14  55 W8        30.30R
AHOSKIE*       CLEAR     25  17  73 CALM      30.32R
EDENTON*       CLEAR     29  19  64 CALM      30.30R
CURRITUCK*     CLEAR     30  15  53 CALM      30.30R
KILL DEVIL HLS CLEAR     35  15  43 NW6       30.27R
MANTEO         CLEAR     36  12  38 N9        30.29R
CAPE HATTERAS  CLEAR     38  17  42 NW10      30.29R
TARBORO*       FAIR      27  22  82 CALM      30.33R
GOLDSBORO      CLEAR     31  24  76 CALM      30.30S
WASHINGTON     CLEAR     29  16  58 CALM      30.32R
GREENVILLE     CLEAR     28  21  74 CALM      30.32S
NEW BERN       CLEAR     29  19  66 CALM      30.33R
WILMINGTON     CLEAR     33  22  63 CALM      30.32R
$$

VAZ048-290300-
ELSEWHERE

CITY           SKY/WX    TMP DP  RH WIND       PRES   REMARKS
HARRISBURG PA  PTCLDY    21   7  54 NW3       30.29R
BALTIMORE      CLEAR     25   6  44 NW6       30.30S
ANNAPOLIS      CLEAR     31   8  38 NW8       30.31R
ANDREWS AFB    CLEAR     29   6  38 NW9       30.31R
PHILADELPHIA   CLEAR     30   2  30 N15G22    30.29R WCI  19
HENDERSON NC   CLEAR     29  20  70 CALM      30.30S
GREENSBORO     CLEAR     32  15  49 CALM      30.29R
ROCKY MOUNT    CLEAR     27  17  66 CALM      30.32R
$$

VAZ100-290300-
MARINE

STATION/POSITION TIME  TEMP    WIND        PRES    WAVE   SWELL
                       AIR SEA DIR/SP/G            HT/PER HT/PER
                 (UTC) (F)     (DEG/KT/KT) (MB)    (FT/S) (FT/S)
BRANDYWINE LGT   0200   32 36  340/ 15/ 20 1024.8R
CAPE MAY NJ      0200   32 35  330/ 14/ 21 1024.3R
LEWES DE         0200   32 34  330/ 16/ 19 1024.7S
15NM E FENWICK I 0200   34 40              1023.4R   6/ 6
OCEAN-CITY-INLET 0200   31 36  340/ 10/ 12 1024.5R
WACHAPREAGUE VA  0200   33 37  330/  5/ 11 1025.3R
THOMAS POINT MD  0200   31 36  310/ 10/ 13 1027.3R
GOOSES REEF MD   0200   33 36  VRB 14/ 16  1025.2R   2/ 2
COVE POINT MD    0200   32     340/ 18/ 23 1025.8S
SOLOMONS ISLAND  0200      37                N/A
BISHOPS HEAD MD  0200   29 35  330/  7/ 10 1025.3R
PINEY POINT MD   0200          350/ 14/ 17   N/A
POTOMAC MD       0200   33 37  350/ 12/ 16 1025.3R   2/ 3
CAMBRIDGE MD     0200   33 35  320/ 13/ 18 1025.6F
LEWISETTA VA     0200   33 36  350/ 13/ 17 1026.1R
RAPPAHANNOCK LGT 0200          340/ 23/ 25 1025.9R
STINGRAY PT      0200   34 38  340/ 14/ 16 1026.3R   1/ 2
YORK RVR RNG VA  0200   35     350/ 15/ 18 1025.2R
YORKTOWN VA      0200   34 39  330/ 10/ 11 1025.8F
JAMESTOWN VA     0200   32 41   10/  4/  8   N/A     0
DOMINION TERM VA 0200   35      60/  2/  5 1025.8R
KIPTOPEKE VA     0200      43  350/ 18/ 24   N/A
CHES BAY BRIDGE  0200   36 40  330/ 22/ 25 1025.3R
CAPE HENRY VA    0200   36     330/ 22/ 26 1024.1R
CHESAPEAKE LGHT  0100   36     340/ 25/ 27 1025.1R
WILLOUBY STN VA  0200   35     350/ 15/ 17 1026.2R
S CRANEY ISL VA  0200          360/ 16/ 20 1025.6R
CAPE HENRY BUOY  0100      42                N/A     5/ 4   2/13
1ST LANDING BUOY 0200   36 40  340/ 19/ 25 1025.0R   3/ 3
CAPE CHARLES BUO 0200      41                N/A     4/12   3/12
OFFSHORE WE BUOY 0200      43                N/A     7/ 5   3/ 8
64NM E OF VA BCH 0200   39 50  340/ 21/ 27 1023.6R   8/ 7   3/11
DUCK PIER NC     0200   37 42  340/ 15/ 17 1024.4F
44100 DUCK FRF   0200      45                N/A     7/ 6   3/13
44056 DUCK FRF   0200      42                N/A     5/12   2/12
OREGON INLET NC  0200   35 42  330/  7/ 11 1025.4R



USA.gov is the U.S. government's official web portal to all federal, state and local government web resources and services.